This is the latest recevied weather packets stored in our database for station/object YO8SDE-8. If no packets are shown the sender has not sent any weather packets the latest 10 day(s).
| Time | Temp. | Humidity | Pressure | Rain* | Wind** | Luminosity | Snow |
|---|---|---|---|---|---|---|---|
| 1777466468 | 17.78° C | 27% | 1011 hPa | 0 mm | - | - | - |
| 1777466168 | 18.33° C | 27% | 1010.9 hPa | 0 mm | - | - | - |
| 1777465868 | 17.78° C | 27% | 1010.9 hPa | 0 mm | - | - | - |
| 1777465568 | 16.11° C | 29% | 1010.9 hPa | 0 mm | - | - | - |
| 1777465268 | 14.44° C | 29% | 1011.1 hPa | 0 mm | - | - | - |
| 1777464968 | 14.44° C | 29% | 1011.1 hPa | 0 mm | - | - | - |
| 1777464668 | 14.44° C | 29% | 1011.2 hPa | 0 mm | - | - | - |
| 1777464368 | 15.56° C | 29% | 1011.2 hPa | 0 mm | - | - | - |
| 1777464068 | 15° C | 30% | 1011.2 hPa | 0 mm | - | - | - |
| 1777463768 | 14.44° C | 30% | 1011.3 hPa | 0 mm | - | - | - |
| 1777463468 | 13.89° C | 30% | 1011.3 hPa | 0 mm | - | - | - |
| 1777463168 | 13.89° C | 31% | 1011.5 hPa | 0 mm | - | - | - |
| 1777462868 | 13.89° C | 32% | 1011.3 hPa | 0 mm | - | - | - |
| 1777462568 | 13.33° C | 32% | 1011.4 hPa | 0 mm | - | - | - |
| 1777462268 | 13.33° C | 32% | 1011.4 hPa | 0 mm | - | - | - |
| 1777461968 | 13.33° C | 31% | 1011.5 hPa | 0 mm | - | - | - |
| 1777461668 | 13.89° C | 31% | 1011.4 hPa | 0 mm | - | - | - |
| 1777461368 | 13.33° C | 30% | 1011.4 hPa | 0 mm | - | - | - |
| 1777461068 | 14.44° C | 30% | 1011.4 hPa | 0 mm | - | - | - |
| 1777460768 | 14.44° C | 30% | 1011.4 hPa | 0 mm | - | - | - |
| 1777460468 | 14.44° C | 31% | 1011.4 hPa | 0 mm | - | - | - |
| 1777460168 | 13.89° C | 30% | 1011.4 hPa | 0 mm | - | - | - |
| 1777459868 | 14.44° C | 30% | 1011.3 hPa | 0 mm | - | - | - |
| 1777459568 | 14.44° C | 30% | 1011.3 hPa | 0 mm | - | - | - |
| 1777459268 | 14.44° C | 30% | 1011.4 hPa | 0 mm | - | - | - |
* Rain latest hour (hover to see other rain measurements)
** Current wind speed in m/s (hover to see current wind gust speed)